[[{"header":{"parameterUnit":"m.s-1","parameterCategory":2,"la1":30.2991,"la2":30.254,"lo1":-89.0895,"lo2":-89.0444,"dy":0.0017,"dx":0.0017,"nx":28,"ny":28,"refTime":"2025-09-17T09:00:00:Z","depth":"0","parameterNumber":2,"parameterNumberName":"U-component_of_CURRENTS"},"data":[0,0,0,0,0,0,0,0,0,0,0,0,0,0,0,0,0,0,0,0,0,0,0,0,0,0,0,0,0,0,0,0,0,0,0,0,0,0,0,0,0,0,0,0,0,0,0,0,0,0,0,0,0,0,0,0,0,0,-0.2662,-0.2663,0,-0.2667,-0.2667,-0.2667,-0.2547,-0.2544,-0.2541,-0.2538,-0.2463,-0.2464,-0.2464,0,0,0,0,0,0,0,0,0,0,0,0,0,-0.2522,-0.2525,-0.2662,-0.2663,-0.2663,-0.2667,-0.2667,-0.2667,-0.2548,-0.2544,-0.254,-0.2537,-0.2463,-0.2463,-0.2464,0,0,0,0,0,0,0,0,0,0,0,0,0,-0.2558,-0.2526,-0.2662,-0.2606,-0.2601,-0.2667,-0.2667,-0.2667,-0.2548,-0.2544,-0.2539,-0.2535,-0.2462,-0.2463,-0.2465,-0.256,0,0,-0.2468,-0.2468,0,0,0,0,0,0,0,0,-0.2556,-0.2563,-0.2614,-0.261,-0.2605,-0.2605,-0.259,-0.2628,-0.255,-0.2565,-0.2538,-0.2533,-0.2508,-0.2505,-0.2513,-0.2557,-0.2553,-0.2468,-0.2469,-0.2469,-0.247,0,0,0,0,0,0,0,-0.2554,-0.2562,-0.2661,-0.2615,-0.2609,-0.2571,-0.2572,-0.2597,-0.2558,-0.2564,-0.2556,-0.2562,-0.2504,-0.2512,-0.251,-0.2552,-0.2468,-0.2469,-0.247,-0.247,-0.2609,-0.2611,0,0,0,0,0,0,-0.2567,-0.2561,-0.2661,-0.2662,-0.2572,-0.2578,-0.2578,-0.2607,-0.2559,-0.2549,-0.2566,-0.2557,-0.2513,-0.2509,-0.2507,-0.2521,-0.2469,-0.247,-0.2471,-0.2606,-0.2609,-0.2612,0,0,0,0,0,0,-0.2564,-0.2577,-0.2661,-0.2611,-0.262,-0.2586,-0.2619,-0.2609,-0.2601,-0.2562,-0.2549,-0.2565,-0.2509,-0.2505,-0.2521,-0.252,-0.2471,-0.2472,-0.2602,-0.2607,-0.2611,-0.261,0,0,0,0,0,0,-0.256,-0.2576,-0.2599,-0.2614,-0.2623,-0.2714,-0.2623,-0.2613,-0.2614,-0.2601,-0.2559,-0.2547,-0.2505,-0.252,-0.2523,-0.2521,-0.2473,-0.2598,-0.2604,-0.2609,-0.2607,-0.2614,-0.2621,0,0,0,0,0,-0.2556,-0.2626,-0.2601,-0.2613,-0.2658,-0.2717,-0.272,-0.2676,-0.2619,-0.2645,-0.2598,-0.2547,-0.2557,-0.2524,-0.2526,-0.2524,-0.2595,-0.2602,-0.2609,-0.2603,-0.2613,-0.2621,0,0,0,0,0,0,-0.2579,-0.2622,-0.2593,-0.2671,-0.2691,-0.2698,-0.2724,-0.2691,-0.268,-0.2655,-0.2592,-0.2582,-0.2605,-0.2591,-0.2555,-0.259,-0.2568,-0.2575,-0.2563,-0.2572,-0.2579,-0.2524,-0.2474,0,0,0,0,0,-0.2599,-0.2658,-0.2678,-0.2738,-0.2752,-0.2736,-0.275,-0.2727,-0.2721,-0.2709,-0.2677,-0.2651,-0.2647,-0.2624,-0.2644,-0.2662,-0.2597,-0.2667,-0.2674,-0.268,-0.2643,-0.2523,-0.2512,-0.2635,-0.2635,-0.2634,0,0,-0.2625,-0.2655,-0.2687,-0.2746,-0.2752,-0.2772,-0.2733,-0.2775,-0.2763,-0.271,-0.2697,-0.2698,-0.2671,-0.2683,-0.2689,-0.2652,-0.2633,-0.2688,-0.2692,-0.2652,-0.2529,-0.2515,-0.2503,-0.2639,-0.2638,-0.2638,0,0,-0.2683,-0.2734,-0.2772,-0.2803,-0.2829,-0.2827,-0.284,-0.2853,-0.2829,-0.2855,-0.2793,-0.2774,-0.2804,-0.2736,-0.2713,-0.2781,-0.27,-0.2818,-0.2765,-0.265,-0.2636,-0.2622,-0.2588,-0.2571,-0.2786,-0.2786,-0.2786,0,-0.2698,-0.2703,-0.2796,-0.2827,-0.2796,-0.2846,-0.2816,-0.2866,-0.2874,-0.2811,-0.2858,-0.2795,-0.2809,-0.2705,-0.2749,-0.2783,-0.2735,-0.2719,-0.2648,-0.2633,-0.2618,-0.2586,-0.2567,-0.2787,-0.2787,-0.2787,-0.2787,0,-0.2739,-0.2734,-0.277,-0.279,-0.2828,-0.2818,-0.2871,-0.2889,-0.2875,-0.2856,-0.2803,-0.2824,-0.2736,-0.2783,-0.2799,-0.27,-0.2712,-0.2688,-0.2599,-0.2604,-0.2574,-0.2554,-0.2788,-0.2788,-0.2788,-0.2788,0,0,-0.2714,-0.276,-0.275,-0.2699,-0.2752,-0.2779,-0.28,-0.2744,-0.2697,-0.2752,-0.2631,-0.268,-0.2655,-0.2632,-0.2634,-0.2574,-0.2509,-0.2602,-0.2596,-0.2523,-0.2302,-0.226,-0.2235,-0.2453,-0.2448,-0.2445,-0.2342,0,-0.2629,-0.2601,-0.2654,-0.2602,-0.2556,-0.2603,-0.2612,-0.2623,-0.263,-0.2595,-0.257,-0.254,-0.2609,-0.2579,-0.2521,-0.2531,-0.2447,-0.2542,-0.2348,-0.2343,-0.2262,-0.2205,-0.2105,-0.1997,-0.2322,-0.2318,-0.2316,0,-0.2535,-0.2527,-0.2426,-0.2389,-0.2377,-0.2399,-0.2325,-0.2355,-0.236,-0.2363,-0.23,-0.2332,-0.2279,-0.2361,-0.2258,-0.2316,-0.2297,-0.2306,-0.2299,-0.2224,-0.2259,-0.2038,-0.1948,-0.195,-0.2284,-0.2287,-0.2289,0,-0.2333,-0.2315,-0.2186,-0.2187,-0.2232,-0.2187,-0.2208,-0.2237,-0.2241,-0.2218,-0.2218,-0.2132,-0.2136,-0.2066,-0.214,-0.2177,-0.2048,-0.2073,-0.1991,-0.1992,-0.1846,-0.184,-0.1677,-0.1923,-0.1923,-0.1924,-0.1924,0,-0.2122,-0.2035,-0.2097,-0.2058,-0.1976,-0.206,-0.1995,-0.2024,-0.2053,-0.2048,-0.2088,-0.206,-0.2068,-0.2033,-0.2049,-0.1969,-0.1938,-0.1948,-0.1923,-0.186,-0.1857,-0.1805,-0.1854,-0.192,-0.1921,-0.1921,-0.1922,0,-0.1908,-0.1905,-0.1835,-0.1872,-0.1884,-0.186,-0.1938,-0.1924,-0.1968,-0.1966,-0.1964,-0.1996,-0.1947,-0.1946,-0.1875,-0.186,-0.175,-0.175,-0.1731,-0.1703,-0.1623,-0.1678,-0.1488,-0.1445,-0.1615,-0.1613,-0.1611,0,-0.1773,-0.1707,-0.1749,-0.1747,-0.1765,-0.1769,-0.1786,-0.1864,-0.1887,-0.1925,-0.1915,-0.1883,-0.1828,-0.1723,-0.1674,-0.1589,-0.1633,-0.1472,-0.1494,-0.1559,-0.1602,-0.1664,-0.1648,-0.1347,-0.1343,-0.134,-0.1337,0,-0.1589,-0.1615,-0.1605,-0.1611,-0.1627,-0.165,-0.1691,-0.1697,-0.1788,-0.1754,-0.1717,-0.1664,-0.1615,-0.1481,-0.1417,-0.137,-0.1436,-0.1402,-0.1418,-0.1315,-0.1412,-0.1381,-0.156,-0.1309,-0.1311,-0.1314,-0.1315,-0.1316,-0.1485,-0.1464,-0.1474,-0.147,-0.1497,-0.1508,-0.1469,-0.1501,-0.146,-0.1367,-0.1449,-0.1254,-0.1351,-0.1221,-0.1186,-0.1117,-0.1203,-0.1096,-0.1147,-0.1198,-0.1158,-0.1318,-0.1069,-0.1071,-0.1072,-0.1073,-0.1074,0,-0.1349,-0.1342,-0.1335,-0.1337,-0.1325,-0.1379,-0.1382,-0.1302,-0.1166,-0.1058,-0.0934,-0.0833,-0.0815,-0.089,-0.0924,-0.0889,-0.0891,-0.0893,-0.0943,-0.0929,-0.0992,-0.0981,-0.0758,-0.0758,-0.0758,-0.0758,-0.0759,-0.0759,-0.1276,-0.1221,-0.1226,-0.1159,-0.1163,-0.1082,-0.104,-0.0899,-0.0774,-0.0468,-0.0267,-0.021,-0.0473,-0.0806,-0.0858,-0.0816,-0.0837,-0.0799,-0.0863,-0.0924,-0.0948,-0.0971,-0.0968,-0.0747,-0.0747,-0.0737,-0.0737,-0.0737]},{"header":{"parameterUnit":"m.s-1","parameterCategory":2,"la1":30.2991,"la2":30.254,"lo1":-89.0895,"lo2":-89.0444,"dy":0.0017,"dx":0.0017,"nx":28,"ny":28,"refTime":"2025-09-17T09:00:00:Z","depth":"0","parameterNumber":3,"parameterNumberName":"V-component_of_CURRENTS"},"data":[0,0,0,0,0,0,0,0,0,0,0,0,0,0,0,0,0,0,0,0,0,0,0,0,0,0,0,0,0,0,0,0,0,0,0,0,0,0,0,0,0,0,0,0,0,0,0,0,0,0,0,0,0,0,0,0,0,0,-0.0427,-0.0426,0,-0.0345,-0.0344,-0.0343,-0.0284,-0.0283,-0.0283,-0.0282,-0.017,-0.0168,-0.0166,0,0,0,0,0,0,0,0,0,0,0,0,0,-0.0551,-0.0549,-0.0427,-0.0426,-0.0425,-0.0345,-0.0344,-0.0343,-0.0284,-0.0283,-0.0282,-0.0282,-0.0171,-0.0168,-0.0165,0,0,0,0,0,0,0,0,0,0,0,0,0,-0.0487,-0.0548,-0.0427,-0.0385,-0.038,-0.0346,-0.0344,-0.0343,-0.0284,-0.0283,-0.0282,-0.0281,-0.0172,-0.0169,-0.0165,-0.0161,0,0,-0.0154,-0.0152,0,0,0,0,0,0,0,0,-0.0491,-0.0482,-0.0392,-0.0388,-0.0382,-0.0323,-0.0347,-0.028,-0.0284,-0.0322,-0.0282,-0.0281,-0.0219,-0.0211,-0.02,-0.0156,-0.0151,-0.0154,-0.0152,-0.015,-0.0149,0,0,0,0,0,0,0,-0.0495,-0.0486,-0.0396,-0.0391,-0.0385,-0.0376,-0.0366,-0.0334,-0.0276,-0.0318,-0.0313,-0.0303,-0.0216,-0.0203,-0.0196,-0.0149,-0.0154,-0.0151,-0.0148,-0.0147,-0.0088,-0.0088,0,0,0,0,0,0,-0.0503,-0.049,-0.0398,-0.0393,-0.0434,-0.0375,-0.0363,-0.0344,-0.0277,-0.0266,-0.0304,-0.0301,-0.021,-0.0201,-0.0192,-0.0157,-0.015,-0.0147,-0.0145,-0.0087,-0.0088,-0.0088,0,0,0,0,0,0,-0.0506,-0.0495,-0.0402,-0.044,-0.0427,-0.0373,-0.0352,-0.0343,-0.0328,-0.0266,-0.0255,-0.0298,-0.0209,-0.0197,-0.0169,-0.0153,-0.0145,-0.0142,-0.0086,-0.0087,-0.0088,-0.0104,0,0,0,0,0,0,-0.0509,-0.0496,-0.0492,-0.044,-0.0425,-0.0383,-0.0352,-0.0342,-0.0322,-0.0317,-0.0258,-0.0247,-0.0207,-0.0174,-0.0165,-0.0148,-0.0139,-0.0086,-0.0087,-0.0088,-0.0103,-0.0105,-0.0107,0,0,0,0,0,-0.0514,-0.0512,-0.0492,-0.0481,-0.0418,-0.0383,-0.0375,-0.0335,-0.0323,-0.0319,-0.0283,-0.0248,-0.0175,-0.0172,-0.0161,-0.0143,-0.0085,-0.0086,-0.0088,-0.0102,-0.0105,-0.0107,0,0,0,0,0,0,-0.0571,-0.0504,-0.0481,-0.0461,-0.0425,-0.0373,-0.0368,-0.0343,-0.0313,-0.031,-0.0255,-0.0242,-0.0209,-0.0186,-0.0185,-0.0133,-0.0124,-0.0124,-0.0139,-0.0141,-0.0144,-0.0139,-0.0136,0,0,0,0,0,-0.058,-0.0557,-0.0499,-0.0486,-0.0469,-0.0422,-0.0406,-0.0379,-0.0342,-0.0327,-0.0284,-0.0245,-0.0207,-0.0184,-0.0151,-0.0125,-0.0093,-0.0109,-0.0111,-0.0113,-0.0105,-0.0059,-0.0055,-0.0093,-0.0093,-0.0093,0,0,-0.0603,-0.0562,-0.0551,-0.0497,-0.0467,-0.0438,-0.041,-0.039,-0.0363,-0.0321,-0.0283,-0.0252,-0.0205,-0.017,-0.0154,-0.0146,-0.0087,-0.0115,-0.0116,-0.0107,-0.006,-0.0056,-0.0052,-0.0094,-0.0093,-0.0093,0,0,-0.0626,-0.0596,-0.0579,-0.0548,-0.0501,-0.0467,-0.0462,-0.041,-0.0386,-0.0352,-0.0312,-0.0274,-0.0224,-0.0176,-0.0149,-0.0149,-0.0104,-0.0147,-0.0145,-0.0101,-0.0097,-0.0093,-0.0049,-0.0041,-0.0145,-0.0145,-0.0145,0,-0.0658,-0.0613,-0.0574,-0.0547,-0.0525,-0.0479,-0.046,-0.0427,-0.0373,-0.0357,-0.0344,-0.0262,-0.0218,-0.0163,-0.0157,-0.0148,-0.0124,-0.0134,-0.0102,-0.0097,-0.0093,-0.0048,-0.0039,-0.0145,-0.0145,-0.0145,-0.0145,0,-0.0653,-0.0623,-0.0616,-0.0555,-0.0535,-0.0515,-0.0462,-0.0441,-0.041,-0.0372,-0.0325,-0.0267,-0.0217,-0.0197,-0.0169,-0.0119,-0.0113,-0.0111,-0.009,-0.009,-0.0044,-0.0034,-0.0147,-0.0146,-0.0146,-0.0146,0,0,-0.0705,-0.0625,-0.0621,-0.0597,-0.0537,-0.0521,-0.0487,-0.0439,-0.0418,-0.0365,-0.0331,-0.0256,-0.0232,-0.02,-0.016,-0.0113,-0.0053,-0.0101,-0.0098,-0.0048,0.0042,0.0074,0.0089,-0.0051,-0.0049,-0.0048,0.0062,0,-0.0709,-0.0661,-0.062,-0.059,-0.0564,-0.0523,-0.0496,-0.0457,-0.0415,-0.0373,-0.031,-0.0265,-0.023,-0.0208,-0.0153,-0.0082,-0.0029,-0.0083,0.0027,0.0031,0.0067,0.0101,0.0145,0.0249,0.0072,0.0073,0.0075,0,-0.0701,-0.0674,-0.0638,-0.0597,-0.0586,-0.0567,-0.0528,-0.0497,-0.0433,-0.0404,-0.0348,-0.0302,-0.0217,-0.0197,-0.0059,-0.01,-0.0027,0.003,0.0035,0.0081,0.0082,0.0219,0.0274,0.0399,0.009,0.0089,0.0088,0,-0.0732,-0.0683,-0.0655,-0.064,-0.059,-0.0584,-0.0563,-0.0512,-0.049,-0.0423,-0.0397,-0.0307,-0.0249,-0.0156,-0.003,-0.0047,0.012,0.0108,0.0211,0.0214,0.0284,0.029,0.0483,0.0212,0.0211,0.0211,0.0211,0,-0.0728,-0.0709,-0.0672,-0.066,-0.0663,-0.062,-0.0611,-0.0578,-0.0526,-0.0485,-0.0418,-0.0355,-0.0236,-0.0128,-0.003,0.0131,0.0124,0.023,0.0252,0.0277,0.0282,0.0418,0.0448,0.0215,0.0214,0.0213,0.0213,0,-0.0739,-0.0702,-0.0691,-0.0669,-0.0669,-0.0675,-0.0654,-0.0643,-0.0585,-0.0526,-0.0506,-0.0384,-0.0236,-0.0111,0.006,0.0144,0.0366,0.0338,0.036,0.0383,0.0575,0.0601,0.0795,0.0881,0.0464,0.0466,0.0467,0,-0.0723,-0.0715,-0.072,-0.0735,-0.0725,-0.0729,-0.0733,-0.0685,-0.0659,-0.0525,-0.0494,-0.0346,-0.0211,0.0039,0.02,0.038,0.0463,0.0522,0.0503,0.0617,0.0663,0.0674,0.0732,0.0591,0.0593,0.0595,0.0596,0,-0.0723,-0.0732,-0.0736,-0.0773,-0.0788,-0.0796,-0.0783,-0.0757,-0.0668,-0.0564,-0.0384,-0.0263,-0.0048,0.0183,0.0372,0.0478,0.062,0.0564,0.0689,0.0793,0.0814,0.0895,0.0481,0.0613,0.0611,0.061,0.0609,0.0608,-0.0735,-0.0757,-0.0774,-0.0808,-0.0833,-0.0825,-0.077,-0.071,-0.0596,-0.037,-0.0287,-0.0025,0.0221,0.05,0.0602,0.0818,0.0771,0.0903,0.093,0.0934,0.1012,0.0632,0.0776,0.0775,0.0775,0.0774,0.0774,0,-0.0738,-0.0765,-0.0805,-0.0829,-0.085,-0.0851,-0.0772,-0.0653,-0.0442,-0.0257,-0.0024,0.0371,0.0609,0.0794,0.1041,0.1182,0.1208,0.1254,0.1296,0.1342,0.1028,0.1029,0.1227,0.1227,0.1227,0.1227,0.1227,0.1226,-0.0739,-0.0773,-0.0798,-0.0827,-0.0838,-0.075,-0.0662,-0.0452,-0.0261,0.0136,0.0409,0.0599,0.0865,0.1248,0.1494,0.1518,0.1656,0.163,0.1702,0.1492,0.1461,0.1432,0.1444,0.1726,0.1726,0.2028,0.2031,0.2033]}],[{"header":{"parameterUnit":"m.s-1","parameterCategory":2,"la1":30.2991,"la2":30.254,"lo1":-89.0895,"lo2":-89.0444,"dy":0.0017,"dx":0.0017,"nx":28,"ny":28,"refTime":"2025-09-17T09:00:00:Z","depth":"2","parameterNumber":2,"parameterNumberName":"U-component_of_CURRENTS"},"data":[0,0,0,0,0,0,0,0,0,0,0,0,0,0,0,0,0,0,0,0,0,0,0,0,0,0,0,0,0,0,0,0,0,0,0,0,0,0,0,0,0,0,0,0,0,0,0,0,0,0,0,0,0,0,0,0,0,0,-0.1971,-0.1972,0,-0.2058,-0.2059,-0.2061,-0.2071,-0.207,-0.2069,-0.2068,-0.2125,-0.2127,-0.213,0,0,0,0,0,0,0,0,0,0,0,0,0,-0.186,-0.1862,-0.1971,-0.1972,-0.1973,-0.2058,-0.206,-0.2061,-0.2072,-0.207,-0.2069,-0.2068,-0.2124,-0.2127,-0.213,0,0,0,0,0,0,0,0,0,0,0,0,0,-0.1927,-0.1863,-0.1971,-0.1986,-0.1988,-0.2058,-0.206,-0.2061,-0.2072,-0.207,-0.2068,-0.2067,-0.2123,-0.2127,-0.2131,-0.2189,0,0,-0.2142,-0.2144,0,0,0,0,0,0,0,0,-0.1923,-0.1931,-0.1983,-0.1985,-0.1987,-0.2049,-0.2041,-0.2101,-0.2072,-0.2043,-0.2068,-0.2066,-0.2096,-0.2102,-0.2127,-0.2191,-0.2194,-0.2143,-0.2145,-0.2147,-0.2148,0,0,0,0,0,0,0,-0.1918,-0.1928,-0.2009,-0.1984,-0.1987,-0.2004,-0.2011,-0.2053,-0.208,-0.2046,-0.2046,-0.2051,-0.2097,-0.2123,-0.2128,-0.2195,-0.2143,-0.2146,-0.2148,-0.215,-0.2261,-0.2262,0,0,0,0,0,0,-0.1901,-0.1924,-0.2006,-0.2011,-0.1947,-0.2007,-0.2016,-0.2034,-0.208,-0.2085,-0.2053,-0.2051,-0.2118,-0.2124,-0.213,-0.2123,-0.2147,-0.215,-0.2153,-0.2261,-0.2261,-0.2262,0,0,0,0,0,0,-0.1899,-0.1908,-0.2002,-0.1966,-0.1978,-0.201,-0.2031,-0.2036,-0.2067,-0.2085,-0.209,-0.2077,-0.2117,-0.2125,-0.2179,-0.2128,-0.2152,-0.2156,-0.226,-0.2261,-0.2262,-0.2159,0,0,0,0,0,0,-0.1896,-0.1907,-0.1921,-0.1965,-0.198,-0.2022,-0.2032,-0.2039,-0.2071,-0.2071,-0.2109,-0.2112,-0.2116,-0.2173,-0.2183,-0.2134,-0.2159,-0.2259,-0.226,-0.2262,-0.2162,-0.2156,-0.2152,0,0,0,0,0,-0.1892,-0.1921,-0.1921,-0.1931,-0.1996,-0.2022,-0.2031,-0.205,-0.2074,-0.2076,-0.2124,-0.2111,-0.2186,-0.2179,-0.2189,-0.2139,-0.2259,-0.226,-0.2261,-0.2164,-0.2157,-0.2152,0,0,0,0,0,0,-0.1892,-0.1926,-0.1927,-0.1968,-0.1978,-0.2021,-0.2055,-0.2063,-0.2108,-0.2128,-0.2145,-0.2152,-0.2169,-0.2198,-0.2189,-0.2181,-0.221,-0.2214,-0.2132,-0.2127,-0.2122,-0.2123,-0.2162,0,0,0,0,0,-0.1895,-0.1901,-0.1942,-0.1956,-0.1995,-0.203,-0.2051,-0.2056,-0.2098,-0.2118,-0.2136,-0.217,-0.2187,-0.2193,-0.2221,-0.2239,-0.2249,-0.2211,-0.2206,-0.2202,-0.2214,-0.2207,-0.22,-0.2267,-0.2267,-0.2267,0,0,-0.1893,-0.1908,-0.1913,-0.1952,-0.1993,-0.2011,-0.2041,-0.208,-0.2068,-0.212,-0.2141,-0.2166,-0.2197,-0.2197,-0.2204,-0.2209,-0.2183,-0.2203,-0.2198,-0.2214,-0.2207,-0.22,-0.2194,-0.2268,-0.2268,-0.2268,0,0,-0.1884,-0.193,-0.1942,-0.1955,-0.1995,-0.2014,-0.2025,-0.2075,-0.2088,-0.2111,-0.2133,-0.214,-0.2183,-0.2166,-0.2171,-0.2171,-0.2167,-0.2173,-0.2132,-0.2123,-0.2117,-0.2111,-0.2079,-0.2072,-0.2157,-0.2157,-0.2157,0,-0.1869,-0.1904,-0.1944,-0.1959,-0.1981,-0.2014,-0.204,-0.2048,-0.208,-0.2106,-0.2104,-0.2157,-0.2155,-0.215,-0.2126,-0.2148,-0.2155,-0.2138,-0.2112,-0.2107,-0.2103,-0.2072,-0.2065,-0.2152,-0.2153,-0.2153,-0.2153,0,-0.1884,-0.1898,-0.1925,-0.1939,-0.1961,-0.1992,-0.2016,-0.2034,-0.2059,-0.2058,-0.2083,-0.209,-0.2114,-0.2088,-0.21,-0.2067,-0.2082,-0.2108,-0.2112,-0.2089,-0.2059,-0.2053,-0.2145,-0.2147,-0.2148,-0.2149,0,0,-0.1865,-0.1921,-0.1922,-0.1927,-0.1968,-0.1979,-0.1999,-0.203,-0.2039,-0.2042,-0.2051,-0.2038,-0.2051,-0.206,-0.2057,-0.2027,-0.1959,-0.2049,-0.205,-0.1992,-0.1932,-0.1865,-0.1852,-0.1986,-0.1985,-0.1985,-0.1906,0,-0.1862,-0.1876,-0.1917,-0.1912,-0.1941,-0.1987,-0.1986,-0.2,-0.2022,-0.2023,-0.2031,-0.2029,-0.2034,-0.2028,-0.2002,-0.1991,-0.1949,-0.1978,-0.1988,-0.1988,-0.191,-0.1845,-0.1712,-0.1626,-0.1901,-0.19,-0.19,0,-0.1863,-0.1871,-0.1889,-0.1909,-0.1939,-0.1924,-0.1972,-0.1973,-0.1992,-0.2014,-0.2029,-0.2038,-0.2003,-0.2002,-0.196,-0.1988,-0.1953,-0.193,-0.1927,-0.1905,-0.1911,-0.1706,-0.1606,-0.1891,-0.1892,-0.1892,-0.1893,0,-0.181,-0.1847,-0.1857,-0.1862,-0.1892,-0.1915,-0.1938,-0.1968,-0.1987,-0.1999,-0.2007,-0.2005,-0.1985,-0.1968,-0.1924,-0.1946,-0.1872,-0.1895,-0.18,-0.1794,-0.1703,-0.1691,-0.1852,-0.1852,-0.1853,-0.1853,-0.1853,0,-0.1774,-0.177,-0.1825,-0.1811,-0.1824,-0.187,-0.1883,-0.1913,-0.1946,-0.1947,-0.1986,-0.1971,-0.1978,-0.1947,-0.1916,-0.1832,-0.1866,-0.1777,-0.1766,-0.1662,-0.1647,-0.1917,-0.1926,-0.185,-0.1851,-0.1851,-0.1852,0,-0.1679,-0.1721,-0.1721,-0.177,-0.1785,-0.1784,-0.1844,-0.185,-0.1898,-0.1899,-0.1903,-0.1933,-0.1887,-0.1877,-0.1823,-0.1799,-0.1737,-0.1698,-0.1561,-0.1535,-0.1666,-0.1671,-0.1579,-0.1576,-0.1573,-0.1571,-0.1569,0,-0.1627,-0.1616,-0.1666,-0.1668,-0.1684,-0.1707,-0.1723,-0.1801,-0.1816,-0.1863,-0.185,-0.183,-0.1776,-0.1687,-0.1627,-0.1546,-0.1632,-0.1402,-0.141,-0.1637,-0.1636,-0.1645,-0.1653,-0.1235,-0.123,-0.1227,-0.1224,0,-0.152,-0.1543,-0.1547,-0.1556,-0.1572,-0.1593,-0.1628,-0.1633,-0.1715,-0.173,-0.1716,-0.1677,-0.1594,-0.1446,-0.1365,-0.1314,-0.141,-0.1325,-0.1584,-0.1335,-0.1309,-0.131,-0.1329,-0.1191,-0.1195,-0.1197,-0.1199,-0.12,-0.1435,-0.1419,-0.1433,-0.1431,-0.1454,-0.1451,-0.1419,-0.1477,-0.1482,-0.1479,-0.1539,-0.1453,-0.1405,-0.1196,-0.1111,-0.106,-0.1164,-0.1132,-0.1144,-0.116,-0.1144,-0.1116,-0.0958,-0.096,-0.0961,-0.0963,-0.0964,0,-0.1317,-0.1313,-0.1307,-0.1295,-0.1268,-0.1326,-0.133,-0.1283,-0.1247,-0.1291,-0.1276,-0.1117,-0.0999,-0.0959,-0.0812,-0.078,-0.0789,-0.0762,-0.0777,-0.0808,-0.0836,-0.0807,-0.0529,-0.0528,-0.0527,-0.0526,0,0,-0.1253,-0.1205,-0.1205,-0.1112,-0.1101,-0.1016,-0.0988,-0.0961,-0.0958,-0.0912,-0.0897,-0.0978,-0.0941,-0.0757,-0.0689,-0.0584,-0.0698,-0.0552,-0.0897,-0.0947,-0.0974,-0.1039,-0.1027,0,0,0,0,0]},{"header":{"parameterUnit":"m.s-1","parameterCategory":2,"la1":30.2991,"la2":30.254,"lo1":-89.0895,"lo2":-89.0444,"dy":0.0017,"dx":0.0017,"nx":28,"ny":28,"refTime":"2025-09-17T09:00:00:Z","depth":"2","parameterNumber":3,"parameterNumberName":"V-component_of_CURRENTS"},"data":[0,0,0,0,0,0,0,0,0,0,0,0,0,0,0,0,0,0,0,0,0,0,0,0,0,0,0,0,0,0,0,0,0,0,0,0,0,0,0,0,0,0,0,0,0,0,0,0,0,0,0,0,0,0,0,0,0,0,-0.0193,-0.0193,0,-0.0098,-0.0096,-0.0095,-0.0039,-0.0039,-0.004,-0.004,0.0117,0.0121,0.0125,0,0,0,0,0,0,0,0,0,0,0,0,0,-0.0246,-0.0246,-0.0193,-0.0193,-0.0192,-0.0098,-0.0096,-0.0095,-0.0039,-0.0039,-0.004,-0.004,0.0115,0.012,0.0125,0,0,0,0,0,0,0,0,0,0,0,0,0,-0.019,-0.0246,-0.0194,-0.0156,-0.0152,-0.0098,-0.0096,-0.0094,-0.0039,-0.0039,-0.004,-0.004,0.0113,0.012,0.0126,0.0171,0,0,0.0146,0.0149,0,0,0,0,0,0,0,0,-0.0194,-0.0188,-0.0162,-0.0159,-0.0154,-0.0084,-0.0058,-0.0004,-0.0039,-0.0077,-0.004,-0.004,0.0052,0.0064,0.0088,0.0179,0.0185,0.0147,0.015,0.0153,0.0155,0,0,0,0,0,0,0,-0.0198,-0.0191,-0.0151,-0.0162,-0.0157,-0.0116,-0.0109,-0.0047,-0.0008,-0.0074,-0.0071,-0.0067,0.0056,0.0081,0.0092,0.0188,0.0146,0.0152,0.0156,0.0159,0.0326,0.0327,0,0,0,0,0,0,-0.0222,-0.0196,-0.0154,-0.0149,-0.018,-0.0116,-0.0107,-0.0103,-0.001,0.0003,-0.0067,-0.0065,0.007,0.0084,0.0098,0.0122,0.0153,0.0159,0.0163,0.0326,0.0326,0.0327,0,0,0,0,0,0,-0.0224,-0.0219,-0.0158,-0.0173,-0.0163,-0.0116,-0.0111,-0.0101,-0.0075,-0.0006,0.0009,-0.0051,0.0071,0.0089,0.0155,0.0129,0.0162,0.0168,0.0325,0.0326,0.0326,0.0192,0,0,0,0,0,0,-0.0226,-0.022,-0.0225,-0.0175,-0.0164,-0.0143,-0.0111,-0.0099,-0.0074,-0.007,0.0013,0.0027,0.0072,0.0145,0.0162,0.0139,0.0173,0.0324,0.0325,0.0326,0.0196,0.0188,0.0182,0,0,0,0,0,-0.0228,-0.0239,-0.0226,-0.0221,-0.0172,-0.0144,-0.0134,-0.0098,-0.0074,-0.0071,-0.0004,0.0024,0.0163,0.0151,0.017,0.0148,0.0324,0.0325,0.0326,0.0199,0.019,0.0182,0,0,0,0,0,0,-0.0259,-0.0233,-0.0218,-0.0219,-0.0192,-0.0137,-0.0128,-0.0098,-0.0042,-0.003,0.004,0.0059,0.0104,0.016,0.0145,0.0205,0.0245,0.025,0.0142,0.0134,0.0127,0.0123,0.0179,0,0,0,0,0,-0.0271,-0.0276,-0.0238,-0.024,-0.0226,-0.0174,-0.0156,-0.0131,-0.0077,-0.0053,0.0003,0.0071,0.0126,0.0155,0.0216,0.0255,0.0304,0.0255,0.0248,0.0241,0.0254,0.0298,0.0295,0.0331,0.0331,0.0331,0,0,-0.0285,-0.0271,-0.0273,-0.0248,-0.0216,-0.0202,-0.0162,-0.014,-0.0127,-0.0043,-0.0002,0.0053,0.0136,0.017,0.0195,0.021,0.0256,0.0243,0.0236,0.0253,0.0299,0.0295,0.0291,0.0332,0.0332,0.0331,0,0,-0.0314,-0.0298,-0.0309,-0.0288,-0.0256,-0.0225,-0.0222,-0.017,-0.0145,-0.0098,-0.0041,0.0001,0.0094,0.013,0.0166,0.0166,0.022,0.0182,0.0136,0.0176,0.0173,0.0171,0.021,0.0213,0.0173,0.0173,0.0172,0,-0.0334,-0.0335,-0.0307,-0.0304,-0.0291,-0.0239,-0.0237,-0.0203,-0.014,-0.0118,-0.01,0.0023,0.0073,0.0119,0.0108,0.0144,0.0184,0.0148,0.0163,0.0162,0.0162,0.0203,0.0207,0.0166,0.0167,0.0168,0.0168,0,-0.0365,-0.036,-0.036,-0.0343,-0.0328,-0.0317,-0.0274,-0.0251,-0.0213,-0.0178,-0.0124,-0.0055,0.0016,0.0023,0.0066,0.0086,0.0119,0.0144,0.017,0.0149,0.0195,0.0202,0.0157,0.016,0.0161,0.0163,0,0,-0.043,-0.0391,-0.0394,-0.0383,-0.0346,-0.0335,-0.0314,-0.028,-0.0259,-0.021,-0.0181,-0.0115,-0.0079,-0.0033,0.0012,0.0038,0.0047,0.0081,0.0086,0.0096,0.014,0.0165,0.0175,0.0069,0.007,0.0071,0.0164,0,-0.0462,-0.0465,-0.044,-0.0437,-0.0426,-0.0378,-0.0366,-0.0329,-0.0284,-0.0244,-0.0183,-0.0135,-0.01,-0.0076,-0.0046,0.0037,0.0064,0.0021,0.0183,0.0189,0.0192,0.0183,0.0172,0.0255,0.0171,0.0173,0.0173,0,-0.0504,-0.0497,-0.05,-0.0469,-0.0462,-0.0458,-0.042,-0.0399,-0.0335,-0.0299,-0.0244,-0.0184,-0.013,-0.0102,0.0016,-0.0012,0.0056,0.0112,0.0118,0.0199,0.0227,0.0272,0.0272,0.0186,0.0185,0.0184,0.0183,0,-0.0556,-0.0541,-0.0544,-0.0534,-0.0494,-0.0491,-0.0473,-0.042,-0.0398,-0.0332,-0.0304,-0.0222,-0.0172,-0.0083,0.0034,0.0026,0.0169,0.0174,0.0263,0.0266,0.0322,0.0328,0.0257,0.0257,0.0256,0.0256,0.0256,0,-0.0594,-0.0596,-0.0569,-0.0567,-0.0579,-0.0537,-0.0534,-0.0499,-0.0447,-0.0413,-0.0339,-0.0284,-0.0163,-0.0063,0.003,0.0174,0.017,0.0265,0.0294,0.0275,0.0275,0.0276,0.0277,0.026,0.0259,0.0258,0.0258,0,-0.0635,-0.0616,-0.062,-0.0599,-0.0598,-0.0607,-0.0583,-0.0573,-0.0516,-0.0467,-0.0449,-0.0325,-0.019,-0.0064,0.0097,0.0177,0.0301,0.0353,0.032,0.0344,0.0371,0.0364,0.0457,0.0458,0.046,0.0461,0.0462,0,-0.0647,-0.0652,-0.0656,-0.0671,-0.0663,-0.0668,-0.0671,-0.062,-0.0598,-0.0479,-0.0456,-0.0316,-0.0197,0.0039,0.0198,0.0368,0.0359,0.0451,0.0432,0.0373,0.0393,0.0383,0.0375,0.045,0.045,0.0451,0.0452,0,-0.0669,-0.0677,-0.0684,-0.072,-0.0735,-0.0745,-0.0735,-0.073,-0.0648,-0.0589,-0.0464,-0.0358,-0.0109,0.0089,0.0302,0.0398,0.0418,0.0471,0.0434,0.0394,0.0373,0.0389,0.038,0.0458,0.0457,0.0457,0.0456,0.0456,-0.069,-0.0712,-0.073,-0.0764,-0.0789,-0.0805,-0.0812,-0.078,-0.0735,-0.0618,-0.0497,-0.031,-0.0097,0.0213,0.0364,0.0499,0.0498,0.0529,0.0525,0.052,0.0496,0.0478,0.0578,0.0578,0.0578,0.0579,0.0579,0,-0.0705,-0.0731,-0.0769,-0.0805,-0.0837,-0.0837,-0.084,-0.082,-0.0768,-0.0619,-0.0488,-0.0242,-0.0004,0.0208,0.0437,0.0569,0.0547,0.0579,0.0528,0.0522,0.0517,0.049,0.0572,0.0572,0.0572,0.0572,0,0,-0.0713,-0.0749,-0.0771,-0.0829,-0.0857,-0.0883,-0.0886,-0.084,-0.0741,-0.0599,-0.0444,-0.0252,0.0032,0.0181,0.0353,0.0473,0.0456,0.0477,0.0473,0.0388,0.0381,0.0486,0.0439,0,0,0,0,0]}],[{"header":{"parameterUnit":"m.s-1","parameterCategory":2,"la1":30.2991,"la2":30.254,"lo1":-89.0895,"lo2":-89.0444,"dy":0.0017,"dx":0.0017,"nx":28,"ny":28,"refTime":"2025-09-17T09:00:00:Z","depth":"4","parameterNumber":2,"parameterNumberName":"U-component_of_CURRENTS"},"data":[0,0,0,0,0,0,0,0,0,0,0,0,0,0,0,0,0,0,0,0,0,0,0,0,0,0,0,0,0,0,0,0,0,0,0,0,0,0,0,0,0,0,0,0,0,0,0,0,0,0,0,0,0,0,0,0,0,0,-0.1153,-0.1154,0,-0.1212,-0.1213,-0.1213,-0.1231,-0.1231,-0.1231,-0.1231,-0.1293,-0.1295,-0.1297,0,0,0,0,0,0,0,0,0,0,0,0,0,-0.1072,-0.1073,-0.1153,-0.1154,-0.1155,-0.1212,-0.1213,-0.1213,-0.1231,-0.1231,-0.1231,-0.1231,-0.1293,-0.1295,-0.1297,0,0,0,0,0,0,0,0,0,0,0,0,0,-0.1114,-0.1074,-0.1153,-0.1173,-0.1175,-0.1212,-0.1213,-0.1213,-0.1231,-0.1231,-0.1231,-0.1231,-0.1292,-0.1295,-0.1297,-0.1314,0,0,-0.1305,-0.1306,0,0,0,0,0,0,0,0,-0.1112,-0.1117,-0.1169,-0.1172,-0.1175,-0.1216,-0.1207,-0.1248,-0.1231,-0.1207,-0.1231,-0.1231,-0.127,-0.1274,-0.1281,-0.1317,-0.132,-0.1305,-0.1307,-0.1308,-0.1309,0,0,0,0,0,0,0,-0.1109,-0.1114,-0.1174,-0.117,-0.1174,-0.1185,-0.119,-0.1215,-0.1236,-0.1209,-0.1211,-0.1222,-0.1271,-0.1279,-0.1283,-0.1321,-0.1305,-0.1307,-0.1309,-0.131,-0.1396,-0.1396,0,0,0,0,0,0,-0.1107,-0.1112,-0.1172,-0.1176,-0.1145,-0.1186,-0.1192,-0.1201,-0.1236,-0.1242,-0.1222,-0.1223,-0.1275,-0.128,-0.1285,-0.1347,-0.1308,-0.131,-0.1312,-0.1395,-0.1396,-0.1397,0,0,0,0,0,0,-0.1104,-0.1111,-0.117,-0.1147,-0.1156,-0.1188,-0.1197,-0.1202,-0.1228,-0.1246,-0.1252,-0.1245,-0.1275,-0.1282,-0.1319,-0.1348,-0.1311,-0.1314,-0.1394,-0.1395,-0.1396,-0.1445,0,0,0,0,0,0,-0.1102,-0.111,-0.1123,-0.1147,-0.1157,-0.1201,-0.1198,-0.1203,-0.1235,-0.1237,-0.1268,-0.1272,-0.1275,-0.1315,-0.1321,-0.1351,-0.1316,-0.1393,-0.1395,-0.1396,-0.1442,-0.1447,-0.1452,0,0,0,0,0,-0.1099,-0.1116,-0.1123,-0.1131,-0.1171,-0.1202,-0.1208,-0.1228,-0.1236,-0.1251,-0.127,-0.1272,-0.1328,-0.1318,-0.1325,-0.1356,-0.1393,-0.1394,-0.1396,-0.144,-0.1446,-0.1452,0,0,0,0,0,0,-0.109,-0.112,-0.1128,-0.1155,-0.1181,-0.1206,-0.1228,-0.1241,-0.1268,-0.1277,-0.1287,-0.1293,-0.1332,-0.1337,-0.1325,-0.1382,-0.1359,-0.1362,-0.139,-0.1396,-0.1401,-0.1406,-0.1318,0,0,0,0,0,-0.1094,-0.1115,-0.1142,-0.1166,-0.1181,-0.1208,-0.1227,-0.1243,-0.1268,-0.1281,-0.1303,-0.1324,-0.1342,-0.1364,-0.1377,-0.1418,-0.1405,-0.144,-0.1445,-0.1449,-0.1456,-0.1464,-0.147,-0.1402,-0.1402,-0.1402,0,0,-0.1099,-0.1119,-0.1132,-0.1166,-0.1189,-0.1221,-0.1219,-0.1257,-0.1287,-0.1285,-0.1336,-0.1343,-0.1354,-0.1391,-0.141,-0.1404,-0.1457,-0.1451,-0.1455,-0.146,-0.1466,-0.1473,-0.1479,-0.1403,-0.1403,-0.1403,0,0,-0.1122,-0.1137,-0.1165,-0.1187,-0.1228,-0.1244,-0.126,-0.1298,-0.1317,-0.1361,-0.1362,-0.1389,-0.1427,-0.1439,-0.1448,-0.149,-0.1476,-0.1496,-0.1538,-0.1545,-0.1551,-0.1556,-0.1529,-0.1531,-0.1507,-0.1507,-0.1507,0,-0.1132,-0.1169,-0.1178,-0.1211,-0.1242,-0.1258,-0.13,-0.1319,-0.1365,-0.139,-0.1384,-0.144,-0.1448,-0.1492,-0.1502,-0.1503,-0.1492,-0.1517,-0.1552,-0.1557,-0.1561,-0.1532,-0.1534,-0.1509,-0.1509,-0.1509,-0.1509,0,-0.1171,-0.121,-0.123,-0.1275,-0.1302,-0.1343,-0.137,-0.1403,-0.1427,-0.1449,-0.1499,-0.1505,-0.1538,-0.1544,-0.1538,-0.1579,-0.1555,-0.1551,-0.1538,-0.1571,-0.1538,-0.1539,-0.1513,-0.1512,-0.1511,-0.1511,0,0,-0.1171,-0.1247,-0.1256,-0.1288,-0.1345,-0.1366,-0.1421,-0.1472,-0.1502,-0.1541,-0.1582,-0.1614,-0.1616,-0.1625,-0.1623,-0.1634,-0.1643,-0.1612,-0.1611,-0.1586,-0.1637,-0.152,-0.1509,-0.165,-0.1651,-0.1652,-0.1595,0,-0.1207,-0.128,-0.1313,-0.138,-0.1418,-0.1454,-0.1495,-0.1538,-0.1567,-0.1602,-0.1622,-0.1649,-0.1646,-0.1657,-0.1673,-0.1647,-0.1652,-0.1657,-0.1609,-0.1607,-0.15,-0.1509,-0.1655,-0.1595,-0.1596,-0.1596,-0.1596,0,-0.1235,-0.1279,-0.1359,-0.1432,-0.1452,-0.1492,-0.1555,-0.1595,-0.1643,-0.1664,-0.1705,-0.1707,-0.1734,-0.1713,-0.1711,-0.1716,-0.1686,-0.1662,-0.1659,-0.1536,-0.1492,-0.156,-0.1597,-0.1597,-0.1597,-0.1597,-0.1597,0,-0.1213,-0.1309,-0.1374,-0.14,-0.1481,-0.1523,-0.1565,-0.1619,-0.1646,-0.1699,-0.1713,-0.1751,-0.175,-0.1746,-0.1702,-0.171,-0.1672,-0.1674,-0.1541,-0.1531,-0.1634,-0.1629,-0.1672,-0.1672,-0.1672,-0.1672,-0.1672,0,-0.1226,-0.1275,-0.1369,-0.1395,-0.1452,-0.1516,-0.157,-0.1613,-0.1668,-0.1682,-0.1737,-0.1733,-0.176,-0.1738,-0.1709,-0.1613,-0.1679,-0.1542,-0.1513,-0.1651,-0.1649,-0.1632,-0.1629,-0.167,-0.167,-0.1671,-0.1671,0,-0.1182,-0.1259,-0.132,-0.1414,-0.1443,-0.1474,-0.1556,-0.1579,-0.1648,-0.1664,-0.1679,-0.1717,-0.1678,-0.1677,-0.1641,-0.1592,-0.153,-0.1482,-0.1606,-0.1586,-0.1382,-0.1382,-0.1328,-0.1323,-0.132,-0.1316,-0.1314,0,-0.1166,-0.12,-0.13,-0.1322,-0.1367,-0.1427,-0.1457,-0.1549,-0.1562,-0.1627,-0.1611,-0.1613,-0.1617,-0.1467,-0.1492,-0.1422,-0.1409,-0.1375,-0.1405,-0.1371,-0.135,-0.1355,-0.136,-0.1308,-0.1307,-0.1306,-0.1305,0,-0.1112,-0.1159,-0.1197,-0.1244,-0.1286,-0.1321,-0.1372,-0.1371,-0.1454,-0.1542,-0.149,-0.1461,-0.1409,-0.1372,-0.1322,-0.1282,-0.1401,-0.1335,-0.1343,-0.1372,-0.1346,-0.133,-0.1339,-0.1291,-0.1293,-0.1295,-0.1295,0,-0.1055,-0.106,-0.1112,-0.1138,-0.1187,-0.1179,-0.1229,-0.1235,-0.1264,-0.1349,-0.1324,-0.1332,-0.138,-0.1295,-0.1253,-0.1199,-0.1186,-0.1162,-0.1179,-0.1194,-0.1178,-0.1128,-0.0975,0,0,0,0,0,-0.0987,-0.0979,-0.0998,-0.1013,-0.1055,-0.1075,-0.1148,-0.1199,-0.1288,-0.1212,-0.1265,-0.1211,-0.115,-0.1161,-0.1073,-0.1184,-0.1187,-0.1079,-0.1168,-0.1218,-0.1233,-0.1228,0,0,0,0,0,0,-0.0938,-0.0955,-0.0958,-0.0898,-0.0879,-0.0903,-0.0941,-0.1006,-0.0974,-0.1075,-0.104,-0.1131,-0.1079,-0.116,-0.104,-0.1043,-0.1074,-0.1103,-0.11,-0.1209,-0.1223,-0.1235,-0.1235,0,0,0,0,0]},{"header":{"parameterUnit":"m.s-1","parameterCategory":2,"la1":30.2991,"la2":30.254,"lo1":-89.0895,"lo2":-89.0444,"dy":0.0017,"dx":0.0017,"nx":28,"ny":28,"refTime":"2025-09-17T09:00:00:Z","depth":"4","parameterNumber":3,"parameterNumberName":"V-component_of_CURRENTS"},"data":[0,0,0,0,0,0,0,0,0,0,0,0,0,0,0,0,0,0,0,0,0,0,0,0,0,0,0,0,0,0,0,0,0,0,0,0,0,0,0,0,0,0,0,0,0,0,0,0,0,0,0,0,0,0,0,0,0,0,-0.0221,-0.0221,0,-0.02,-0.02,-0.02,-0.0178,-0.0178,-0.0177,-0.0177,-0.0119,-0.0118,-0.0117,0,0,0,0,0,0,0,0,0,0,0,0,0,-0.0223,-0.0223,-0.0221,-0.0221,-0.022,-0.02,-0.02,-0.02,-0.0178,-0.0178,-0.0177,-0.0177,-0.0119,-0.0118,-0.0116,0,0,0,0,0,0,0,0,0,0,0,0,0,-0.0215,-0.0223,-0.0221,-0.0207,-0.0206,-0.02,-0.02,-0.0199,-0.0178,-0.0178,-0.0177,-0.0177,-0.012,-0.0118,-0.0116,-0.0115,0,0,-0.0111,-0.011,0,0,0,0,0,0,0,0,-0.0215,-0.0215,-0.0209,-0.0208,-0.0206,-0.0191,-0.0179,-0.0169,-0.0178,-0.0189,-0.0177,-0.0177,-0.014,-0.0136,-0.0134,-0.0112,-0.0109,-0.011,-0.0109,-0.0108,-0.0108,0,0,0,0,0,0,0,-0.0216,-0.0215,-0.0213,-0.0209,-0.0207,-0.0195,-0.0194,-0.0177,-0.0167,-0.0188,-0.0186,-0.0184,-0.0139,-0.0136,-0.0133,-0.0108,-0.011,-0.0109,-0.0108,-0.0107,-0.0079,-0.0079,0,0,0,0,0,0,-0.0219,-0.0216,-0.0214,-0.0212,-0.0209,-0.0196,-0.0194,-0.0197,-0.0168,-0.0163,-0.0184,-0.0183,-0.014,-0.0135,-0.0131,-0.0113,-0.0108,-0.0107,-0.0106,-0.0078,-0.0079,-0.0079,0,0,0,0,0,0,-0.022,-0.022,-0.0215,-0.0213,-0.0211,-0.0196,-0.0199,-0.0196,-0.0195,-0.0165,-0.016,-0.0185,-0.0139,-0.0133,-0.0121,-0.0111,-0.0106,-0.0104,-0.0078,-0.0078,-0.0079,-0.0088,0,0,0,0,0,0,-0.022,-0.022,-0.0226,-0.0214,-0.0212,-0.0211,-0.02,-0.0196,-0.0193,-0.0191,-0.0164,-0.0158,-0.0138,-0.0124,-0.0119,-0.0109,-0.0103,-0.0077,-0.0078,-0.0079,-0.0087,-0.0088,-0.009,0,0,0,0,0,-0.022,-0.0231,-0.0227,-0.0227,-0.022,-0.0211,-0.021,-0.0197,-0.0194,-0.0194,-0.018,-0.0159,-0.0125,-0.0123,-0.0117,-0.0106,-0.0077,-0.0078,-0.0079,-0.0086,-0.0088,-0.009,0,0,0,0,0,0,-0.0234,-0.023,-0.0225,-0.0234,-0.0223,-0.0208,-0.0209,-0.0201,-0.0192,-0.0191,-0.0165,-0.0158,-0.0144,-0.013,-0.0129,-0.0102,-0.0097,-0.0097,-0.0105,-0.0106,-0.0108,-0.0096,-0.0101,0,0,0,0,0,-0.0241,-0.025,-0.0237,-0.0244,-0.024,-0.0226,-0.0223,-0.0214,-0.0202,-0.0198,-0.0178,-0.016,-0.0144,-0.013,-0.0116,-0.0101,-0.0072,-0.0091,-0.0093,-0.0094,-0.0082,-0.0033,-0.0028,-0.0082,-0.0082,-0.0082,0,0,-0.0249,-0.0248,-0.0253,-0.0248,-0.024,-0.0235,-0.0223,-0.022,-0.0213,-0.0193,-0.018,-0.0166,-0.0144,-0.0128,-0.0119,-0.0112,-0.0068,-0.0095,-0.0096,-0.0083,-0.0033,-0.0028,-0.0023,-0.0083,-0.0082,-0.0082,0,0,-0.0265,-0.0268,-0.0276,-0.0269,-0.0259,-0.0248,-0.0249,-0.0233,-0.0223,-0.0213,-0.0196,-0.0174,-0.0156,-0.0127,-0.0114,-0.0115,-0.0082,-0.0119,-0.0105,-0.0059,-0.0054,-0.0048,-0.0017,-0.0009,-0.0113,-0.0113,-0.0113,0,-0.0275,-0.0283,-0.0276,-0.0277,-0.0273,-0.0255,-0.0255,-0.0242,-0.0224,-0.021,-0.0211,-0.0168,-0.015,-0.0113,-0.0114,-0.0114,-0.0091,-0.0099,-0.0059,-0.0053,-0.0047,-0.0016,-0.0007,-0.0113,-0.0113,-0.0113,-0.0113,0,-0.0291,-0.0296,-0.0299,-0.0295,-0.0288,-0.0288,-0.0266,-0.0254,-0.0243,-0.0224,-0.0193,-0.0165,-0.0136,-0.0128,-0.012,-0.0074,-0.0074,-0.007,-0.005,-0.0042,-0.0011,-0.0001,-0.0114,-0.0114,-0.0114,-0.0113,0,0,-0.0323,-0.0313,-0.0317,-0.0314,-0.0299,-0.0296,-0.0279,-0.0254,-0.0241,-0.0212,-0.0186,-0.0149,-0.013,-0.0113,-0.0094,-0.0048,0.0004,-0.0044,-0.0041,-0.0005,0.0097,0.0075,0.0083,0.0015,0.0016,0.0018,0.0099,0,-0.0338,-0.0347,-0.0335,-0.0338,-0.0338,-0.0312,-0.0299,-0.0273,-0.0246,-0.0217,-0.0168,-0.0145,-0.0126,-0.0115,-0.0064,-0.0021,0.0031,-0.0019,0.0078,0.008,0.0067,0.0095,0.0024,0.0106,0.0109,0.011,0.0111,0,-0.0361,-0.0363,-0.0372,-0.0358,-0.0356,-0.0355,-0.0328,-0.0311,-0.0258,-0.0237,-0.0187,-0.0155,-0.009,-0.008,0.0031,-0.0004,0.005,0.0093,0.0097,0.0091,0.0077,0.0099,0.0129,0.0128,0.0127,0.0125,0.0124,0,-0.0395,-0.039,-0.0401,-0.0397,-0.0378,-0.0376,-0.0364,-0.0322,-0.0307,-0.0249,-0.0232,-0.0149,-0.0115,-0.0028,0.0055,0.0045,0.0177,0.0172,0.0212,0.0211,0.021,0.0204,0.027,0.027,0.027,0.027,0.027,0,-0.0416,-0.0426,-0.0421,-0.0427,-0.044,-0.0413,-0.0413,-0.0384,-0.0342,-0.0319,-0.0251,-0.021,-0.0099,-0.0016,0.0063,0.0164,0.0187,0.0228,0.0239,0.0201,0.0193,0.0217,0.0209,0.0273,0.0272,0.0272,0.0271,0,-0.0447,-0.0444,-0.0459,-0.0454,-0.0459,-0.047,-0.046,-0.0453,-0.0407,-0.0374,-0.0358,-0.0252,-0.0142,-0.003,0.0113,0.0164,0.0266,0.0301,0.0249,0.0252,0.0267,0.0258,0.0354,0.0354,0.0354,0.0354,0.0354,0,-0.0458,-0.0471,-0.0493,-0.0514,-0.0517,-0.053,-0.0539,-0.0499,-0.0484,-0.0395,-0.0379,-0.0264,-0.0186,0.0,0.0117,0.0271,0.029,0.0334,0.0313,0.028,0.028,0.0271,0.0262,0.0354,0.0354,0.0354,0.0354,0,-0.0478,-0.0495,-0.051,-0.0558,-0.0583,-0.06,-0.0603,-0.0596,-0.0535,-0.0495,-0.0387,-0.0274,-0.0146,0.0,0.0119,0.0231,0.0297,0.0335,0.0336,0.0316,0.0281,0.028,0.0271,0.0355,0.0355,0.0355,0.0355,0,-0.0498,-0.0521,-0.0553,-0.059,-0.0631,-0.0652,-0.0649,-0.0613,-0.0584,-0.0477,-0.0439,-0.0283,-0.0182,-0.0018,0.0095,0.0196,0.0218,0.0236,0.0242,0.0243,0.0181,0.0118,0.0165,0,0,0,0,0,-0.0508,-0.0537,-0.0579,-0.0619,-0.0662,-0.0678,-0.0681,-0.0664,-0.0606,-0.0539,-0.0484,-0.0357,-0.0162,-0.0068,0.003,0.008,0.0219,0.0195,0.0238,0.0356,0.0356,0.0299,0,0,0,0,0,0,-0.0516,-0.0559,-0.0579,-0.0634,-0.0666,-0.0702,-0.0705,-0.0667,-0.0619,-0.0545,-0.044,-0.0351,-0.0165,-0.022,0.0027,0.0062,0.0097,0.0298,0.0299,0.0356,0.0356,0.0356,0.0298,0,0,0,0,0]}]]